Haines, AK

3:32 PM AKDT on July 25, 2017 (GMT -0800)
Haines

Weather History for PAHN - May, 2013

Change the Weather History Date:

Saturday, May 11, 2013

  Actual Average Record
Temperature  
Mean Temperature 46 °F -  
Max Temperature 48 °F 53 °F 76 °F (1975)
Min Temperature 44 °F 39 °F 29 °F (1976)
Degree Days  
Heating Degree Days 19    
Moisture  
Dew Point 42 °F    
Average Humidity 87    
Maximum Humidity 100    
Minimum Humidity 68    
Precipitation  
Precipitation 0.31 in - - ()
Sea Level Pressure  
Sea Level Pressure 29.79 in    
Wind  
Wind Speed 3 mph (ESE)    
Max Wind Speed 10 mph    
Max Gust Speed -    
Visibility 8 miles    
Events Rain    
Averages and records for this station are not official NWS values.
T = Trace of Precipitation, MM = Missing Value Source: NWS Daily Summary

Daily Weather History Graph

Daily Weather History Graph

Search for Another Location

Airport or City:

Trip Planner

Search our weather history database for the weather conditions in past years. The results will help you decide how hot, cold, wet, or windy it might be!

Date:

Astronomy

May. 11, 2013 Rise Set
Actual Time 4:37 AM AKDT 9:20 PM AKDT
Civil Twilight 3:40 AM AKDT 10:18 PM AKDT
Nautical Twilight 1:52 AM AKDT 12:13 AM AKDT
Astronomical Twilight Sun does not set Sun does not set
Moon 5:43 AM AKDT (5/11) 11:16 PM AKDT (5/11)
Length of Visible Light 18h 38m
Length of Day
16h 42m
Waxing Crescent, 3% of the Moon is Illuminated
May 11
Waxing Crescent
May 17
First Quarter
May 24
Full
May 31
Last Quarter
Jun 8
New

Hourly Weather History & Observations

Time (AKDT) Temp. Windchill Dew Point Humidity Pressure Visibility Wind Dir Wind Speed Gust Speed Precip Events Conditions
12:54 AM 46.9 °F - 39.0 °F 74% 30.01 in 10.0 mi Calm Calm - N/A   Mostly Cloudy
1:54 AM 46.0 °F - 37.0 °F 71% 29.99 in 10.0 mi Calm Calm - N/A   Mostly Cloudy
2:54 AM 46.0 °F - 36.0 °F 68% 29.97 in 10.0 mi Calm Calm - N/A   Overcast
3:54 AM 44.1 °F 40.8 °F 36.0 °F 73% 29.94 in 10.0 mi WNW 5.8 mph - N/A   Partly Cloudy
4:54 AM 44.1 °F 38.6 °F 35.1 °F 71% 29.91 in 10.0 mi WNW 10.4 mph - N/A   Clear
5:54 AM 45.0 °F 42.6 °F 35.1 °F 68% 29.89 in 10.0 mi WNW 4.6 mph - N/A   Clear
6:54 AM 45.0 °F - 36.0 °F 71% 29.88 in 10.0 mi Calm Calm - N/A   Overcast
7:54 AM 46.9 °F - 37.9 °F 71% 29.87 in 10.0 mi Calm Calm - 0.00 in   Overcast
8:54 AM 46.0 °F 44.8 °F 37.9 °F 73% 29.86 in 10.0 mi WNW 3.5 mph - 0.00 in Rain Light Rain
9:54 AM 46.0 °F - 39.0 °F 76% 29.85 in 10.0 mi Calm Calm - 0.01 in Rain Light Rain
10:54 AM 45.0 °F 41.8 °F 42.1 °F 90% 29.85 in 6.0 mi SE 5.8 mph - 0.04 in Rain Light Rain
11:50 AM 44.6 °F - 41.0 °F 87% 29.82 in 8.0 mi Calm Calm - 0.05 in Rain Light Rain
11:54 AM 45.0 °F 43.5 °F 42.1 °F 90% 29.83 in 10.0 mi WSW 3.5 mph - 0.05 in Rain Light Rain
12:54 PM 46.0 °F 43.1 °F 44.1 °F 93% 29.81 in 10.0 mi West 5.8 mph - 0.02 in Rain Light Rain
1:24 PM 46.4 °F - 42.8 °F 87% 29.80 in 10.0 mi Calm Calm - 0.00 in Rain Light Rain
1:40 PM 46.4 °F - 44.6 °F 93% 29.80 in 9.0 mi Calm Calm - 0.00 in Rain Light Rain
1:54 PM 46.9 °F - 44.1 °F 90% 29.81 in 10.0 mi Calm Calm - 0.00 in Rain Light Rain
2:26 PM 46.4 °F - 42.8 °F 87% 29.78 in 10.0 mi Calm Calm - 0.00 in Rain Light Rain
2:54 PM 48.0 °F - 44.1 °F 86% 29.78 in 7.0 mi South 3.5 mph - 0.01 in Rain Light Rain
3:03 PM 48.2 °F - 44.6 °F 87% 29.77 in 7.0 mi South 3.5 mph - 0.00 in Rain Light Rain
3:19 PM 48.2 °F - 44.6 °F 87% 29.77 in 10.0 mi SE 3.5 mph - 0.00 in Rain Light Rain
3:54 PM 46.9 °F - 46.0 °F 97% 29.76 in 4.0 mi ESE 4.6 mph - 0.01 in Rain Light Rain
4:54 PM 46.9 °F - 45.0 °F 93% 29.74 in 6.0 mi Variable 4.6 mph - 0.01 in Rain Light Rain
5:32 PM 48.2 °F - 46.4 °F 93% 29.72 in 10.0 mi SE 6.9 mph - 0.00 in   Overcast
5:47 PM 48.2 °F - 46.4 °F 93% 29.72 in 10.0 mi ESE 6.9 mph - 0.00 in Rain Light Rain
5:54 PM 48.0 °F - 46.0 °F 93% 29.73 in 10.0 mi ESE 9.2 mph - 0.00 in Rain Light Rain
6:54 PM 46.9 °F - 45.0 °F 93% 29.73 in 8.0 mi ESE 8.1 mph - 0.01 in Rain Light Rain
7:54 PM 46.9 °F - 45.0 °F 93% 29.70 in 9.0 mi East 4.6 mph - 0.02 in   Overcast
8:20 PM 46.4 °F 42.9 °F 44.6 °F 93% 29.69 in 7.0 mi East 6.9 mph - 0.00 in   Overcast
8:54 PM 46.0 °F 43.9 °F 45.0 °F 96% 29.70 in 8.0 mi East 4.6 mph - 0.01 in Rain Light Rain
9:11 PM 46.4 °F 43.5 °F 44.6 °F 93% 29.68 in 7.0 mi ESE 5.8 mph - 0.02 in Rain Rain
9:22 PM 46.4 °F 43.5 °F 44.6 °F 93% 29.68 in 6.0 mi East 5.8 mph - 0.03 in Rain Rain
9:54 PM 46.0 °F 43.1 °F 45.0 °F 96% 29.70 in 9.0 mi ENE 5.8 mph - 0.05 in Rain Light Rain
10:01 PM 46.4 °F 44.3 °F 44.6 °F 93% 29.69 in 9.0 mi East 4.6 mph - 0.00 in Rain Light Rain
10:54 PM 45.0 °F 41.8 °F 45.0 °F 100% 29.70 in 5.0 mi East 5.8 mph - 0.05 in Rain Light Rain
11:52 PM 44.6 °F 40.7 °F 44.6 °F 100% 29.67 in 5.0 mi ESE 6.9 mph - 0.02 in Rain Light Rain
11:54 PM 45.0 °F 41.2 °F 44.1 °F 97% 29.68 in 5.0 mi ESE 6.9 mph - 0.02 in Rain Light Rain